User: anonymous   Login
Location: Unspecified
(40.7945°N, 0.0000°E)
Time: 02:32:07
(UTC+00:00)
Language:

KAITUO 1B - Orbit

View from above orbital plane
View from above orbital plane
View from above satellite
View from above satellite

Ground track
Ground track

The orbit data is extracted from the following two-line orbital elements,

1 40912U 15049P   19203.49576134  .00000660  00000-0  34117-4 0  9991
2 40912  97.4489 210.4094 0016500  57.6793  94.0389 15.19644426212446
Epoch (UTC): 22 July 2019 11:53:53
Eccentricity: 0.0016500
inclination: 97.4489°
perigee height: 495 km
apogee height: 518 km
right ascension of ascending node: 210.4094°
argument of perigee: 57.6793°
revolutions per day: 15.19644426
mean anomaly at epoch: 94.0389°
orbit number at epoch: 21244

The dashed part of the orbit path shows where the satellite is in the earth's shadow,  

DLR